Regional Weather Roundup
Issued by NWS

Home | Current Version | Previous Version | Text Only | Print | Product List | Glossary On
Versions: 1 2 3 4 5 6 7 8 9 10 11 12 13 14 15 16 17 18 19 20 21 22 23 24 25 26 27 28 29 30 31 32 33 34 35 36 37 38 39 40 41 42 43 44 45 46 47 48 49 50
000
ASUS42 KKEY 211310
RWRKEY

FLORIDA REGIONAL WEATHER ROUNDUP FOR THE FLORIDA KEYS
NATIONAL WEATHER SERVICE KEY WEST FLORIDA
900 AM EDT TUE APR 21 2015

...SOUTH FLORIDA AND THE KEYS...

CITY           SKY/WX    TMP DP  RH WIND       PRES   REMARKS
FORT MYERS     CLOUDY    75  72  90 S3        29.97R
SW REGIONAL AP CLOUDY    75  72  90 S5        29.98R
NAPLES         CLOUDY    76  73  91 CALM      29.98R
MIAMI          CLOUDY    75  72  90 VRB3      29.98S
WEST KENDALL   LGT RAIN  76  69  79 N13       29.98S
HOMESTEAD      MOSUNNY   80  75  85 SW5       29.98R
MARATHON       MOSUNNY   85  79  82 S6        29.98R HX  98
BOCA CHICA NAS MOSUNNY   83  75  77 S10       29.98R HX  90
KEY WEST INTL  SUNNY     82  76  81 S9        29.98R

...INTERNATIONAL WEATHER...

CITY           SKY/WX    TMP DP  RH WIND       PRES   REMARKS
NASSAU BAHAMAS NOT AVBL
CANCUN MEXICO  MOSUNNY   82  75  78 SE15      29.92R
COZUMEL MEXICO MOSUNNY   79  73  83 SE12      29.92R

ADJACENT COASTAL WATERS...

STATION/POSITION TIME  SKY/WX   TEMP    WIND        PRES    WAVE
                                AIR SEA DIR/SP/G            HT/PER
                 (UTC)          (F)     (DEG/KT/KT) (MB)    (FT/S)
PULASKI SHOAL LI 1200            80     140/  2/  2 1014.5R
SAND KEY         1250            80     180/  8/ 10 1015.3R
SOMBRERO KEY     1300            81     220/  9/  9 1016.0R
LONG KEY         1200            81 84  200/  8/  9 1015.6R
MOLASSES REEF    1300            80 80  210/ 11/ 11 1015.3R
FOWEY ROCKS      NOT AVBL

$$


USA.gov is the U.S. government's official web portal to all federal, state and local government web resources and services.